Terminal Aerodrome Forecast
Issued by NWS La Crosse, WI

Home | Current Version | Previous Version | Text Only | Print | Product List | Glossary On
Versions: 1 2 3 4 5 6 7 8 9 10 11 12 13 14 15 16 17 18 19 20 21 22 23 24 25 26 27 28 29 30 31 32
000
FTUS43 KARX 020520
TAFLSE
TAF
KLSE 020520Z 0206/0306 VRB04KT P6SM SKC
     FM020800 VRB03KT P6SM VCFG SCT004
      TEMPO 0209/0212 2SM BR
     FM021400 18004KT P6SM SKC
     FM021700 24006KT P6SM SCT060
     FM030200 VRB04KT P6SM SKC=

USA.gov is the U.S. government's official web portal to all federal, state and local government web resources and services.